N0THY Weather Reports


time (UTC)temp
C
wind
direction
speed
KPH
gust
KPH
rain 1hr
cm
rain 24hr
cm
rain mn
cm
humidity
%
barometer
mb
20260906224716 30 248 4.8 12.9 0.00 0.00 0.00 8 1015.7
20260906221710 30 248 9.7 12.9 0.00 0.00 0.00 7 1015.7
20260906220207 30 263 8.0 11.3 0.00 0.00 0.00 7 1015.9
20260906214704 30 228 4.8 11.3 0.00 0.00 0.00 7 1015.9
20260906213201 31 273 12.9 14.5 0.00 0.00 0.00 5 1016.1
20260906211658 32 90 1.6 4.8 0.00 0.00 0.00 4 1016.2
20260906210155 33 256 4.8 6.4 0.00 0.00 0.00 3 1016.3
20260906204652 33 176 1.6 11.3 0.00 0.00 0.00 3 1016.5
20260906203149 33 295 1.6 12.9 0.00 0.00 0.00 3 1016.7
20260906201646 32 224 4.8 16.1 0.00 0.00 0.00 4 1017.0
20260906200143 32 114 1.6 14.5 0.00 0.00 0.00 5 1017.2
20260906194640 30 256 4.8 9.7 0.00 0.00 0.00 8 1017.4
20260906193137 30 223 6.4 9.7 0.00 0.00 0.00 8 1017.6
20260906191634 30 188 3.2 8.0 0.00 0.00 0.00 6 1017.8
20260906190131 32 218 6.4 6.4 0.00 0.00 0.00 5 1017.9
20260906184628 30 244 4.8 11.3 0.00 0.00 0.00 6 1018.2
20260906183125 31 273 8.0 8.0 0.00 0.00 0.00 6 1018.4
20260906181623 30 339 1.6 8.0 0.00 0.00 0.00 10 1018.8
20260906180120 29 196 1.6 3.2 0.00 0.00 0.00 14 1019.1
20260906173114 28 218 1.6 3.2 0.00 0.00 0.00 18 1019.6
20260906171611 27 50 1.6 3.2 0.00 0.00 0.00 21 1019.8
20260906170108 27 126 3.2 3.2 0.00 0.00 0.00 22 1020.1
20260906164605 26 220 0.0 1.6 0.00 0.00 0.00 23 1020.2
20260906161559 25 220 1.6 3.2 0.00 0.00 0.00 26 1020.4
20260906160056 23 99 0.0 1.6 0.00 0.00 0.00 29 1020.5
20260906154553 23 0 1.6 3.2 0.00 0.00 0.00 30 1020.7
20260906153050 23 0 0.0 3.2 0.00 0.00 0.00 33 1020.7
20260906151547 21 45 0.0 3.2 0.00 0.00 0.00 38 1021.0
20260906150044 20 0 1.6 1.6 0.00 0.00 0.00 40 1021.1
20260906143038 18 273 0.0 1.6 0.00 0.00 0.00 47 1021.3
20260906141536 17 135 0.0 0.0 0.00 0.00 0.00 50 1021.1
20260906140032 16 45 0.0 1.6 0.00 0.00 0.00 53 1021.2
20260906133027 15 45 0.0 0.0 0.00 0.00 0.00 56 1021.1
20260906131524 13 9 1.6 1.6 0.00 0.00 0.00 59 1020.9
20260906130021 13 45 0.0 1.6 0.00 0.00 0.00 59 1021.0
20260906124518 13 0 0.0 1.6 0.00 0.00 0.00 59 1020.8
20260906123015 13 0 0.0 1.6 0.00 0.00 0.00 59 1020.9
20260906121512 13 0 0.0 1.6 0.00 0.00 0.00 59 1020.8
20260906120009 12 90 1.6 1.6 0.00 0.00 0.00 60 1020.7
20260906114506 12 54 1.6 3.2 0.00 0.00 0.00 62 1020.7
20260906113003 12 54 1.6 1.6 0.00 0.00 0.00 62 1020.8
20260906111500 12 0 0.0 0.0 0.00 0.00 0.00 63 1020.9
20260906105957 11 20 0.0 1.6 0.00 0.00 0.00 64 1020.7
20260906104454 11 0 0.0 0.0 0.00 0.00 0.00 64 1020.8
20260906102951 12 0 0.0 1.6 0.00 0.00 0.00 64 1020.6
20260906101448 12 90 0.0 0.0 0.00 0.00 0.00 63 1020.6
20260906095945 12 0 0.0 1.6 0.00 0.00 0.00 62 1020.7
20260906094443 12 0 0.0 0.0 0.00 0.00 0.00 60 1020.6
20260906092941 12 90 0.0 1.6 0.00 0.00 0.00 59 1020.4
20260906091437 13 45 0.0 0.0 0.00 0.00 0.00 58 1020.3
20260906085934 13 45 0.0 0.0 0.00 0.00 0.00 58 1020.2
20260906084431 13 0 0.0 1.6 0.00 0.00 0.00 58 1020.1
20260906082928 13 24 1.6 1.6 0.00 0.00 0.00 58 1020.0
20260906081425 13 45 1.6 1.6 0.00 0.00 0.00 57 1020.1
20260906075922 13 45 0.0 1.6 0.00 0.00 0.00 55 1020.1
20260906074419 14 0 0.0 0.0 0.00 0.00 0.00 54 1020.2
20260906072916 14 0 0.0 1.6 0.00 0.00 0.00 54 1020.0
20260906071413 14 0 0.0 1.6 0.00 0.00 0.00 53 1020.0
20260906065910 15 0 0.0 1.6 0.00 0.00 0.00 50 1020.0
20260906064407 15 0 0.0 0.0 0.00 0.00 0.00 48 1019.9
20260906062904 15 0 0.0 1.6 0.00 0.00 0.00 48 1019.8
20260906061401 15 90 0.0 1.6 0.00 0.00 0.00 48 1019.7
20260906054355 16 45 0.0 0.0 0.00 0.00 0.00 45 1019.5
20260906052852 17 45 1.6 1.6 0.00 0.00 0.00 44 1019.4
20260906051350 16 45 0.0 1.6 0.00 0.00 0.00 45 1019.4
20260906045847 17 90 1.6 1.6 0.00 0.00 0.00 45 1019.3
20260906044344 17 45 0.0 0.0 0.00 0.00 0.00 42 1019.2
20260906042841 17 0 0.0 1.6 0.00 0.00 0.00 42 1019.1
20260906041338 18 0 0.0 1.6 0.00 0.00 0.00 40 1018.9
20260906035835 18 24 1.6 1.6 0.00 0.00 0.00 39 1018.8
20260906034332 18 8 0.0 1.6 0.00 0.00 0.00 39 1018.6
20260906032829 18 19 1.6 1.6 0.00 0.00 0.00 39 1018.5
20260906031326 18 69 1.6 1.6 0.00 0.00 0.00 39 1018.3
20260906025823 19 0 0.0 1.6 0.00 0.00 0.00 37 1018.0
20260906024320 20 41 1.6 1.6 0.00 0.00 0.00 34 1017.9
20260906022817 21 0 0.0 1.6 0.00 0.00 0.00 30 1017.6
20260906021314 23 57 1.6 1.6 0.00 0.00 0.00 23 1017.2
20260906015811 25 225 0.0 0.0 0.00 0.00 0.00 16 1017.0
20260906014308 26 225 0.0 0.0 0.00 0.00 0.00 14 1016.9
20260906012805 28 270 3.2 6.4 0.00 0.00 0.00 11 1016.9
20260906011302 28 253 1.6 6.4 0.00 0.00 0.00 10 1017.0
20260906005759 30 248 3.2 9.7 0.00 0.00 0.00 8 1016.9
20260906004257 30 243 3.2 8.0 0.00 0.00 0.00 7 1016.9
20260906002754 31 269 4.8 11.3 0.00 0.00 0.00 7 1016.9
20260906001251 31 271 4.8 11.3 0.00 0.00 0.00 6 1016.8
20260905235748 31 261 4.8 11.3 0.00 0.00 0.00 6 1016.8
20260905234245 31 215 6.4 14.5 0.00 0.00 0.00 5 1016.8
20260905232742 31 259 6.4 11.3 0.00 0.00 0.00 5 1016.9
20260905231239 32 267 4.8 14.5 0.00 0.00 0.00 5 1016.9